User: anonymous   Login
Location: Altleiningen
(49.5078°N, 8.0741°E)
Time: 14:28:17
(UTC+00:00)
Language:

Cosmos 1633 Rocket - Orbit

View from above orbital plane
View from above orbital plane
View from above satellite
View from above satellite

Ground track
Ground track

The orbit data is extracted from the following two-line orbital elements,

1 15593U 85020B   21131.76866357  .00000086  00000-0  73793-5 0  9992
2 15593  82.5400   9.4407 0012156  21.5110 338.6614 14.84428736934535
Epoch (UTC): 11 May 2021 18:26:52
Eccentricity: 0.0012156
inclination: 82.5400°
perigee height: 607 km
apogee height: 624 km
right ascension of ascending node: 9.4407°
argument of perigee: 21.5110°
revolutions per day: 14.84428736
mean anomaly at epoch: 338.6614°
orbit number at epoch: 93453

The dashed part of the orbit path shows where the satellite is in the earth's shadow,  

DLR